Terug naar catalogus

FENGYUN 1C DEB

ActiefPO
NORAD 35195·DEBRIS·🇨🇳 China

Gelanceerd May 10, 1999 vanaf Taiyuan Satellite Launch Center

Loading…

Volgende Passages (komende 24 uur)

TLE

VersSource: Space-Track

Epoch: Sep 13, 2026, 04:35 UTC

1 35195U 99025DPB 26256.19115497  .00001789  00000-0  37645-3 0  9999
2 35195  98.9954  17.0122 0098699 315.4076  43.9210 14.57999615949231

Volg FENGYUN 1C DEB in realtime met AllMySat

Download on the App Store